Location: Unspecified
(0.0000°N, 0.0000°E)
Time: 13:14:47
(UTC+00:00)

Explorer 7 - All Passes

Search period start: 07 October 2022 00:00
Search period end: 17 October 2022 00:00
Orbit: 481 x 667 km, 50.3° (Epoch: 06 October)

Date Brightness Start Highest point End Pass type
(mag) Time Alt. Az. Time Alt. Az. Time Alt. Az.
07 Oct - 04:49:05 10° SSE 04:50:44 12° SE 04:52:26 10° ESE visible
07 Oct - 06:26:37 10° SW 06:30:55 47° NW 06:35:26 10° NNE daylight
07 Oct - 16:50:10 10° NNE 16:52:30 15° NE 16:54:47 10° E daylight
07 Oct - 18:29:11 10° WNW 18:32:42 28° SW 18:36:06 10° S visible
08 Oct - 04:49:39 10° S 04:53:05 22° SE 04:56:38 10° ENE visible
08 Oct - 06:29:37 10° WSW 06:33:18 25° NW 06:37:07 10° N daylight
08 Oct - 16:51:17 10° N 16:54:55 28° NE 16:58:23 10° ESE daylight
08 Oct - 18:32:46 10° W 18:35:01 14° SW 18:37:14 10° SSW visible
09 Oct - 04:51:16 10° SSW 04:55:23 42° SE 04:59:43 10° NE visible
09 Oct - 06:33:31 10° W 06:35:43 13° NW 06:37:58 10° NNW daylight
09 Oct - 16:53:07 10° NNW 16:57:16 59° NE 17:01:11 10° SE daylight
10 Oct - 04:53:21 10° SW 04:57:41 86° SE 05:02:17 10° NE visible
10 Oct - 16:55:24 10° NW 16:59:35 64° SW 17:03:31 10° SSE daylight
11 Oct - 03:18:46 10° SE 03:19:51 11° SE 03:20:57 10° ESE visible
11 Oct - 04:55:49 10° SW 05:00:00 47° NW 05:04:24 10° NNE visible
11 Oct - 15:19:08 10° NNE 15:21:38 15° NE 15:24:02 10° E daylight
11 Oct - 16:58:08 10° WNW 17:01:51 30° SW 17:05:24 10° S daylight
12 Oct - 03:18:56 10° S 03:22:09 21° SE 03:25:28 10° ENE visible
12 Oct - 04:58:47 10° WSW 05:02:20 25° NW 05:06:03 10° N visible
12 Oct - 15:20:14 10° N 15:23:59 28° NE 15:27:35 10° ESE daylight
12 Oct - 17:01:34 10° W 17:04:07 16° SW 17:06:36 10° SSW daylight
13 Oct - 03:20:27 10° SSW 03:24:24 40° SE 03:28:34 10° ENE visible
13 Oct - 05:02:36 10° W 05:04:42 13° NW 05:06:51 10° NNW visible
13 Oct - 15:22:02 10° NNW 15:26:18 58° NE 15:30:21 10° SE daylight
14 Oct - 03:22:28 10° SW 03:26:39 82° SE 03:31:06 10° NE visible
14 Oct - 15:24:14 10° NW 15:28:34 67° SW 15:32:39 10° SSE daylight
15 Oct - 03:24:53 10° SW 03:28:55 48° NW 03:33:12 10° NNE visible
15 Oct - 13:47:57 10° NNE 13:50:33 15° NE 13:53:04 10° E daylight
15 Oct - 15:26:53 10° WNW 15:30:48 32° SW 15:34:32 10° S daylight
16 Oct - 01:48:06 10° S 01:51:04 19° SE 01:54:08 10° E night (unlit)
16 Oct - 03:27:46 10° WSW 03:31:13 24° NW 03:34:49 10° N night (unlit)
16 Oct - 13:49:00 10° N 13:52:52 28° NE 13:56:34 10° ESE daylight
16 Oct - 15:30:10 10° W 15:33:01 17° SW 15:35:47 10° SSW daylight
